Weather in Bydanovo

Russia / Kirov Oblast     58°44′58″N   50°47′52″E
temp.,
°C
wind,
m/s
gust,
m/s
humid.,
%
clouds,
%
prec.,
mm/h
press.,
hPa
HPBL,
m
21 june, mon
mon2100:00+16se3862100 0.0 1020233
03:00+14sse2892100 0.3 1020165
06:00+17se478478 0.1 1020277
09:00+23ssw33655 0.1 1019610
12:00+29wnw364415 0.0 10182521
15:00+31wnw463352 0.0 10172627
18:00+27wnw1156100 0.0 101711
21:00+23s116283 0.0 101811
22 june, tue
tue2200:00+21w227350 0.0 101833
03:00+18wnw2282100 0.0 101924
06:00+23nw2467100 0.0 1019192
09:00+29nw24448 0.0 1019696
12:00+32wnw353237 0.0 10193071
15:00+27nnw3752100 0.0 1018326
18:00+25s005972 0.0 101811
21:00+21sw227243 0.0 101818
23 june, wed
wed2300:00+20wnw25795 0.0 101877
03:00+18nnw22846 0.0 101830
06:00+23wnw256738 0.1 1018205
09:00+28nw344860 0.1 1018806
12:00+31nnw353949 0.0 10171876
15:00+30nne344416 0.0 10171050
18:00+29nnw2457100 0.0 1016143
21:00+21sw2386100 0.6 101766
24 june, thu
thu2400:00+18ssw229398 0.4 101833
03:00+18wsw229436 0.5 101723
06:00+22w257956 0.0 1017217
09:00+27w235448 0.0 1016667
12:00+31w354376 0.0 10161728
15:00+32w344399 0.0 10141466
18:00+29wnw146149 0.0 101295
21:00+20s3696100 1.4 1014100
25 june, fri
fri2500:00+18sw389658 0.3 1014155
03:00+17sse229521 0.9 101434
06:00+21wsw24875 0.0 1012160
09:00+29w36515 0.0 1011750
12:00+32wnw57395 0.0 10112061
15:00+31wnw58366 0.0 10112315
18:00+28nw47515 0.0 1010896
21:00+23n311680 0.0 1011397